Showing default

MUSAT3, 64573

Orbit data source: Space-Track

MUSAT3, 64573 is an American payload satellite in SSO that was launched on Mon, 23 Jun 2025 UTC via an FALCON 9 launch vehicle from the Air Force Western Test Range (AFWTR). Payload-class satellites include a variety of spacecraft equipped with specific instruments for various scientific and technological missions. These include communications satellites like Starlink; space stations such as the ISS; scientific satellites like the Hubble; Earth observation satellites from companies like Planet Labs, Umbra, and HawkEye 360; GPS; miniature CubeSats for education and research; and military/defense satellites.

Loading next visibility...
Identifier
64573, 2025-135AX
Orbit
SSO
Country
Flag of USUS
Related business
Manufacturer
Muon Space
Mission
Operational Commercial Imaging
Bus & Motor
MUON, Unknown motor
Mass
~130 kg wet, ~130 kg dry
Launch date (UTC)
2025-06-23 (1 year ago)
Launch vehicle
FALCON 9
Launch site
Air Force Western Test Range (AFWTR)
Object type
Payload
Rocket body
Debris
Shape & HBR
Box + 2 Pan, 2.5 m
Radar Cross Section
2.173 m², Large (>1 m²)

Expand to show TLE details & history
Last TLE update: 14 hours ago

TLE from 14 hours ago
0 MUSAT3
1 64573U 25135AX  26171.27059796  .00002459  00000-0  18459-3 0  9993
2 64573  97.7085 285.5116 0001993 229.4126 130.6926 15.03564311 54396
Epoch: 2026-06-20T06:29Z
TLE epoch observation values (Epoch: 2026-06-20T06:29:39.663Z)
Latitude
-0.00005°
Longitude
-80.39128°
Altitude
559.877 km
Speed
7.581 km/s
True Right ascension
19h 02m 02s
True Declination
0° 00' 00"
Sunlit
Object was in full shadow at epoch
Visualization orbit readout
Latitude
Unknown
Longitude
Unknown
Altitude
Unknown
Speed
Unknown
Apparent Right ascension
Unknown
Apparent Declination
Unknown
Sunlit
N/A
Visualization observer readout
Local Sidereal Time
07:20:28
Azimuth
Unknown
Elevation
Unknown
Doppler factor
Unknown
Orbital elements
Apogee altitude
554.298 km
Perigee altitude
551.536 km
Semi-major axis
6,931.054 km
Eccentricity
0.0002
Inclination
97.7085°
RAAN
285.5116°
Arg. of periapsis
229.4126°
True anomaly
130.70991°
Mean anomaly
130.6926°
Eccentric anomaly
130.70126°
Mean motion
3.76135 °/min
Orbital period
95.71 mins
BSTAR
0.00018459
Loading maneuver chart data...
Computing Atmospheric mass density...
Loading historical data...
Loading historical data...
Loading historical data...
Loading historical data...
Loading historical data...
Loading historical data...
Loading historical data...

Documentation

Showing up to 5 results
|